ZDPS 2A (40901 NORAD) Tracking and Keplerian Element Data

This shows tracking and keplerian element data for the satellite.

Feedback or suggestion? Click here.




ElementValue
Catalog40901
NameZDPS 2A
Epoch Orbit46194
Epoch Day13.031623
Epoch Year2024
RAAN42.9176
Inclination97.3964
Eccentricity0.0003427
Argument of Perigee115.9618
Mean Anonmoly244.2019
Mean Motion16.09694529
Decay Rate0.01629557
L11 40901U 15049C 24013.03162300 .01629557 19664-2 18510-2 0 9998
L22 40901 97.3964 42.9176 0003427 115.9618 244.2019 16.09694529461947



Live tracking and technical data element details for ZDPS 2A (NORAD 40901). ZDPS 2A can be tracked NOW for your location showing map with azimuth and elevation plus other details from your city location.







IsCatalogInMostPopularTable: catalog: 40901, numindb: 587
Update: records affected: 1



GetName: 40901 ZDPS 2A

Hit Count: updated at: Thu, 23 Jan 2025 18:12:50 GMT